Content
SEND FEEDBACK

Daily
Averages
Monthly
Summary
Canada

BANFF, ALBERTA


Home > North America > Canada > Alberta
Elevation: 4583 feet     Latitude: 51 11N     Longitude: 115 34W

WEATHER
 
SELECT A DAY
Number of Records: 134,294;   Date Range: 1/1/95 - 10/20/14
 
SHARE

PRINT THIS DATA

[ ← Previous Day ]
WEATHER ALMANAC - JUNE 24, 2013
[ Next Day → ]
[ °C ]   °F
We're sorry. There is no daily almanac available for Banff, Alberta on June 24, 2013.
WEATHER BY HOUR - JUNE 24, 2013
[ °C ]   °F
Local TimeTemperatureDewpointHumidityBarometerVisibilityWind DirectionWind SpeedGust SpeedPrecipitationEventsConditions
1:00 AM38.1 °F38.1 °F100 %29.79 inCalm
2:00 AM38.1 °F38.1 °F100 %29.82 inCalm
3:00 AM38.1 °F38.1 °F100 %29.81 inWest (280°)1.2 mph
4:00 AM36.1 °F36.1 °F100 %29.79 inNorth (10°)1.2 mph
5:00 AM38.8 °F38.8 °F100 %29.78 inSW (230°)1.2 mph
6:00 AM37.4 °F37.4 °F100 %29.78 inCalm
7:00 AM40.3 °F39.9 °F99 %29.77 inSW (220°)3.5 mph
8:00 AM42.6 °F41.2 °F95 %29.75 inWest (260°)2.3 mph
9:00 AM47.5 °F42.3 °F82 %29.73 inSW (230°)4.6 mph
10:00 AM51.1 °F43.7 °F76 %29.71 inWest (260°)1.2 mph
11:00 AM54.3 °F46.0 °F74 %29.70 inNE (40°)2.3 mph
12:00 PM60.3 °F44.8 °F57 %29.67 inNE (40°)3.5 mph
1:00 PM56.8 °F45.0 °F64 %29.69 inNE (50°)4.6 mph
2:00 PM55.6 °F48.9 °F78 %29.70 inWNW (290°)2.3 mph0.01 in
3:00 PM56.1 °F45.9 °F68 %29.70 inENE (70°)2.3 mph
4:00 PM56.7 °F46.8 °F69 %29.69 inNE (40°)2.3 mph
5:00 PM57.9 °F45.5 °F63 %29.69 inCalm0.01 in
6:00 PM58.6 °F46.4 °F64 %29.67 inSouth (190°)1.2 mph
7:00 PM58.6 °F46.2 °F63 %29.66 inSW (230°)2.3 mph
8:00 PM56.8 °F48.4 °F73 %29.65 inSW (230°)1.2 mph
9:00 PM55.6 °F49.3 °F79 %29.65 inSSW (210°)2.3 mph
10:00 PM52.9 °F48.4 °F85 %29.64 inSSW (210°)2.3 mph
11:00 PM50.7 °F47.5 °F89 %29.64 inSW (220°)3.5 mph
Hourly data recorded from CWZG, located miles away from Banff, Alberta







STORIES FROM OUR PARTNERS